Miscellaneous Local Product
Issued by NWS North Platte, NE

Home | Current Version | Previous Version | Graphics & Text | Print | Product List | Glossary On
Versions: 1 2 3 4 5 6 7 8 9 10 11 12 13 14 15 16 17 18 19 20 21 22 23 24 25 26 27 28 29 30 31 32 33 34 35 36 37 38 39 40 41 42 43 44 45 46 47 48 49 50
000
AXUS43 KLBF 260610
MISLBF


WESTERN AND NORTH CENTRAL NEBRASKA HOURLY WEATHER ROUNDUP
NATIONAL WEATHER SERVICE NORTH PLATTE NE
1200 AM CST MON JAN 26 2015

***STATIONS NOT REPORTING VARIABLES SUCH AS SKY/WEATHER OR
PRESSURE ARE PROVIDED BY THE NEBRASKA DEPARTMENT OF
ROADS...RAWS...AND APRS NETWORKS...AND ARE NOT UNDER
NATIONAL WEATHER SERVICE QUALITY CONTROL***

...OBSERVATIONS IN AND NEAR THE EASTERN PANHANDLE OF NEBRASKA...

CITY           SKY/WX    TMP DP  RH WIND       PRES   REMARKS
PINE RIDGE     CLEAR     43  30  60 W8        30.02R
CHADRON        PTCLDY    43  31  62 W12       30.04S
ALLIANCE       PTCLDY    36  30  79 W15       30.06S WCI  27
SIDNEY         CLEAR     42  30  62 W14       30.13S
$$

...OBSERVATIONS IN NORTH CENTRAL NEBRASKA...

CITY           SKY/WX    TMP DP  RH WIND       PRES   REMARKS
VALENTINE      CLEAR     34  30  85 W8        29.95S WCI  27
THEDFORD       CLEAR     39  33  79 W8        29.99R WCI  33
AINSWORTH      PTCLDY    35  28  76 SW6       29.95S WCI  30
O`NEILL        CLOUDY    35  32  89 S8        29.97F WCI  28
ORD            CLOUDY    33  28  81 CALM      29.99F
BROKEN BOW     PTCLDY    32  27  81 CALM      29.99F
$$

...OBSERVATIONS IN SOUTHWEST NEBRASKA AND FAR NORTHEAST COLORADO...

CITY           SKY/WX    TMP DP  RH WIND       PRES   REMARKS
WRAY           FAIR      39  32  75 W13       30.11S WCI  32
HOLYOKE        FAIR      43  32  65 W13G20    30.10S
IMPERIAL       CLEAR     42  30  62 W13       30.07S
OGALLALA       CLEAR     43  33  67 W15       30.06R
NORTH PLATTE   CLEAR     29  23  78 CALM      30.02S
MCCOOK         PTCLDY    35  26  69 SW8       30.05S WCI  29
LEXINGTON      MOCLDY    39  27  62 SW5       30.03F
$$

...NORTH PLATTE AREA...

CITY           SKY/WX    TMP DP  RH WIND       PRES   REMARKS
AIRPORT        CLEAR     29  23  78 CALM      30.02S
$$

...SOME WEATHER OBSERVATIONS FROM AROUND THE REGION...

CITY           SKY/WX    TMP DP  RH WIND       PRES   REMARKS
DENVER         CLEAR     41  26  55 SW9       30.21R
LARAMIE        CLEAR     31  22  69 SW5       30.28R WCI  26
CHEYENNE       PTCLDY    46  24  42 NW15      30.21R
SCOTTSBLUFF    MOCLDY    33  29  85 NW3       30.13R
RAPID CITY     PTCLDY    45  31  58 NW10      29.95S
PIERRE         CLOUDY    34  28  79 W8        29.87S WCI  27
WINNER         FAIR      41  29  62 SW12      29.90F
SIOUX FALLS    MOCLDY    32  30  92 SW6       29.94F WCI  26
OMAHA          CLEAR     29  27  92 S7        30.06S WCI  22
GRAND ISLAND   CLOUDY    32  27  81 S6        30.05S WCI  26
KANSAS CITY    CLEAR     30  27  88 CALM      30.10S
WICHITA        CLEAR     30  24  78 CALM      30.15R
HAYS           CLEAR     30  18  59 SW7       30.11S WCI  23
LIBERAL        CLEAR     34  25  69 W6        30.19R WCI  29
GOODLAND       CLEAR     38  31  76 W13       30.12S WCI  30
$$



USA.gov is the U.S. government's official web portal to all federal, state and local government web resources and services.